Temp
-15 -15 -15 -15 -16 -16 -16 -16 -16 -16 -16 -16 -16 -17 -18 -17 -17 -18 -18 -18 -18 -18 -18 -18 -19 -19 -20 -20 -20 -20 -21 -21 -21 -21 -21 -22 -22 -22
-16 -16 -16 -16 -16 -16 -16 -17 -17 -17 -16 -17 -17 -17 -17 -18 -18 -18 -18 -19 -19 -19 -19 -19 -20 -20 -21 -21 -21 -22 -22 -22 -22 -22 -22 -22 -23 -23
-16 -16 -16 -16 -16 -17 -17 -17 -17 -17 -17 -17 -17 -17 -17 -17 -18 -18 -19 -19 -20 -20 -20 -20 -21 -21 -21 -22 -22 -22 -23 -23 -23 -23 -23 -23 -24 -24
-16 -17 -17 -17 -18 -18 -18 -17 -17 -18 -18 -18 -18 -18 -18 -18 -18 -19 -20 -20 -21 -21 -22 -22 -22 -22 -22 -22 -23 -23 -23 -23 -24 -24 -24 -24 -25 -24
-17 -18 -18 -18 -18 -18 -18 -18 -18 -18 -18 -18 -18 -19 -19 -19 -20 -21 -21 -21 -22 -22 -23 -23 -22 -23 -23 -23 -23 -24 -24 -24 -24 -25 -25 -25 -25 -25
-18 -18 -18 -18 -18 -18 -17 -18 -18 -18 -18 -18 -18 -19 -20 -21 -21 -22 -22 -23 -23 -23 -24 -23 -23 -24 -24 -24 -24 -25 -25 -25 -25 -26 -26 -25 -26 -25
-18 -18 -18 -18 -18 -18 -18 -18 -18 -18 -18 -19 -20 -22 -21 -22 -24 -24 -24 -23 -23 -24 -24 -24 -24 -24 -24 -24 -25 -25 -25 -26 -26 -26 -26 -26 -26 -26
-18 -18 -18 -18 -18 -18 -18 -18 -19 -19 -20 -21 -23 -23 -24 -25 -24 -24 -24 -24 -24 -24 -24 -25 -25 -25 -25 -25 -25 -26 -26 -27 -26 -26 -26 -26 -26 -26
-18 -19 -19 -18 -18 -18 -19 -19 -21 -24 -25 -25 -25 -25 -25 -25 -24 -25 -24 -24 -24 -25 -25 -25 -25 -25 -25 -26 -26 -26 -27 -27 -27 -27 -26 -26 -26 -26
-19 -19 -19 -19 -20 -20 -21 -22 -25 -26 -26 -26 -27 -26 -26 -25 -25 -25 -25 -25 -25 -25 -25 -25 -25 -26 -26 -26 -27 -27 -27 -27 -27 -27 -26 -26 -26 -26
-20 -22 -23 -23 -24 -24 -24 -25 -25 -25 -26 -26 -26 -26 -25 -25 -25 -25 -25 -26 -25 -26 -25 -26 -26 -27 -27 -27 -27 -27 -27 -27 -27 -27 -27 -26 -26 -26
-23 -25 -25 -25 -25 -25 -24 -24 -25 -25 -26 -27 -27 -26 -26 -26 -26 -26 -25 -26 -26 -26 -26 -27 -27 -27 -27 -27 -27 -27 -27 -27 -27 -27 -27 -26 -26 -26
-26 -26 -26 -26 -26 -26 -27 -27 -27 -27 -27 -26 -27 -27 -27 -26 -26 -26 -26 -26 -26 -27 -27 -27 -27 -27 -27 -27 -27 -27 -27 -27 -27 -27 -26 -26 -26 -26
-26 -26 -26 -26 -26 -28 -28 -28 -27 -27 -27 -27 -27 -27 -26 -26 -27 -27 -27 -27 -27 -27 -27 -27 -27 -27 -28 -28 -28 -28 -28 -27 -27 -27 -27 -26 -26 -26
-27 -27 -27 -27 -26 -28 -28 -28 -27 -27 -27 -27 -27 -27 -27 -27 -27 -28 -28 -28 -27 -27 -27 -27 -27 -27 -27 -28 -28 -28 -28 -27 -27 -27 -27 -26 -26 -26
-27 -27 -27 -27 -27 -28 -28 -28 -28 -28 -27 -27 -27 -28 -28 -28 -28 -27 -27 -27 -28 -28 -28 -28 -28 -28 -27 -27 -27 -27 -27 -27 -27 -27 -27 -26 -26 -26
-27 -28 -28 -28 -27 -28 -28 -28 -28 -28 -28 -28 -28 -28 -27 -27 -27 -28 -28 -29 -29 -29 -29 -29 -28 -28 -28 -27 -28 -28 -28 -27 -27 -27 -26 -26 -26 -26
-29 -30 -29 -28 -28 -28 -28 -28 -27 -28 -28 -28 -28 -28 -27 -28 -28 -29 -29 -29 -29 -29 -29 -29 -28 -28 -28 -28 -28 -28 -27 -27 -27 -27 -26 -26 -26 -26
-30 -30 -29 -29 -28 -28 -28 -28 -28 -28 -28 -28 -28 -28 -28 -28 -28 -29 -29 -29 -29 -29 -29 -29 -28 -28 -28 -28 -28 -27 -27 -27 -27 -26 -26 -26 -26 -26
-31 -31 -30 -29 -29 -28 -28 -28 -28 -28 -28 -28 -28 -28 -28 -28 -29 -29 -28 -28 -29 -29 -28 -29 -28 -28 -28 -28 -27 -27 -27 -27 -26 -26 -26 -26 -26 -26
-32 -31 -30 -30 -30 -29 -29 -28 -28 -28 -29 -28 -28 -28 -28 -28 -29 -29 -28 -29 -29 -28 -28 -28 -28 -28 -28 -28 -28 -27 -27 -27 -26 -26 -26 -26 -26 -26
-32 -31 -31 -30 -30 -29 -29 -29 -28 -28 -29 -28 -28 -28 -28 -29 -29 -29 -29 -29 -29 -28 -28 -28 -28 -28 -28 -28 -28 -27 -27 -27 -26 -26 -26 -26 -26 -26
-31 -31 -31 -30 -30 -29 -29 -29 -29 -29 -29 -28 -28 -28 -28 -29 -29 -29 -29 -29 -29 -29 -28 -28 -28 -28 -28 -28 -27 -27 -27 -27 -27 -26 -26 -26 -26 -26
Height
5729 5724 5720 5716 5710 5705 5699 5693 5687 5685 5684 5680 5676 5673 5665 5662 5658 5654 5650 5647 5643 5640 5636 5632 5629 5626 5624 5622 5619 5616 5611 5608 5606 5603 5600 5597 5594 5592
5714 5709 5704 5699 5694 5689 5684 5679 5673 5666 5665 5664 5659 5657 5651 5646 5642 5637 5633 5629 5624 5621 5618 5614 5612 5609 5606 5603 5601 5599 5596 5593 5591 5588 5586 5582 5579 5577
5698 5692 5687 5681 5677 5672 5667 5662 5657 5651 5646 5654 5644 5640 5634 5627 5623 5618 5613 5609 5605 5603 5601 5599 5596 5592 5589 5587 5586 5584 5580 5578 5575 5572 5571 5569 5566 5565
5681 5675 5670 5665 5660 5656 5651 5648 5642 5636 5629 5628 5626 5622 5616 5608 5602 5598 5593 5591 5586 5584 5583 5582 5579 5576 5572 5571 5571 5570 5565 5563 5561 5559 5559 5556 5554 5553
5665 5660 5656 5650 5645 5639 5634 5630 5624 5619 5611 5605 5603 5595 5594 5588 5581 5577 5574 5570 5567 5564 5565 5563 5562 5561 5557 5556 5556 5554 5552 5550 5549 5547 5547 5547 5546 5544
5650 5645 5640 5634 5629 5623 5617 5612 5604 5596 5589 5581 5577 5567 5567 5564 5558 5556 5553 5552 5550 5548 5549 5548 5547 5546 5544 5544 5544 5544 5541 5540 5538 5538 5539 5538 5537 5537
5635 5628 5622 5616 5610 5602 5594 5589 5577 5567 5559 5551 5547 5541 5538 5539 5536 5536 5539 5537 5536 5535 5533 5536 5533 5533 5532 5532 5531 5530 5529 5529 5530 5530 5530 5529 5530 5530
5616 5609 5602 5594 5586 5578 5567 5555 5544 5532 5527 5521 5519 5519 5517 5518 5521 5522 5523 5523 5523 5519 5524 5523 5522 5521 5521 5519 5520 5519 5520 5521 5522 5523 5523 5523 5523 5523
5593 5585 5577 5568 5556 5547 5541 5527 5515 5505 5498 5496 5495 5497 5502 5507 5508 5507 5508 5509 5509 5510 5509 5512 5510 5510 5511 5509 5510 5511 5512 5514 5516 5517 5517 5517 5517 5517
5566 5554 5545 5542 5531 5518 5510 5503 5494 5491 5487 5482 5481 5483 5487 5490 5494 5494 5497 5498 5499 5499 5499 5501 5500 5500 5501 5501 5502 5504 5506 5507 5509 5511 5511 5511 5511 5511
5542 5528 5519 5513 5508 5498 5489 5483 5478 5474 5471 5471 5471 5473 5477 5481 5482 5484 5486 5488 5489 5489 5490 5490 5490 5492 5493 5494 5496 5498 5499 5501 5503 5505 5505 5506 5505 5505
5525 5514 5505 5497 5490 5482 5474 5467 5465 5463 5462 5463 5463 5463 5467 5470 5472 5475 5476 5479 5480 5482 5481 5483 5484 5485 5487 5488 5489 5491 5493 5495 5498 5499 5500 5500 5500 5500
5508 5503 5495 5486 5478 5469 5462 5460 5458 5457 5457 5455 5455 5459 5462 5465 5464 5467 5468 5470 5471 5471 5472 5475 5476 5477 5479 5479 5480 5484 5487 5490 5492 5494 5495 5495 5495 5496
5495 5491 5485 5479 5471 5464 5461 5460 5457 5453 5452 5452 5453 5455 5456 5458 5459 5460 5461 5462 5463 5463 5464 5466 5468 5470 5471 5472 5474 5478 5481 5484 5487 5489 5490 5491 5491 5492
5477 5477 5472 5469 5463 5459 5457 5455 5453 5450 5449 5450 5450 5451 5452 5453 5453 5453 5455 5454 5454 5454 5455 5457 5460 5462 5464 5467 5470 5472 5476 5480 5482 5484 5485 5487 5488 5489
5462 5460 5459 5458 5454 5451 5449 5448 5448 5446 5445 5445 5446 5447 5447 5448 5448 5447 5446 5445 5444 5444 5445 5448 5451 5454 5458 5461 5464 5468 5472 5475 5477 5479 5481 5483 5485 5486
5442 5441 5443 5444 5442 5442 5441 5441 5441 5441 5441 5441 5442 5443 5443 5443 5442 5440 5438 5437 5436 5435 5437 5440 5444 5448 5452 5456 5461 5465 5468 5471 5473 5475 5477 5479 5481 5483
5416 5421 5428 5431 5432 5433 5434 5434 5435 5436 5436 5437 5438 5439 5439 5438 5435 5433 5432 5431 5431 5431 5433 5436 5440 5444 5448 5453 5457 5460 5464 5466 5469 5472 5474 5476 5478 5479
5399 5405 5413 5418 5422 5425 5426 5428 5429 5430 5431 5433 5434 5435 5434 5432 5430 5428 5427 5426 5426 5427 5430 5433 5437 5441 5445 5449 5453 5456 5460 5463 5466 5469 5471 5473 5474 5476
5387 5394 5402 5407 5410 5415 5418 5420 5422 5424 5426 5428 5429 5430 5429 5427 5425 5423 5422 5422 5423 5424 5427 5431 5435 5438 5442 5446 5449 5453 5456 5459 5463 5465 5468 5470 5471 5472
5379 5386 5392 5397 5401 5406 5410 5413 5416 5419 5421 5423 5425 5425 5424 5422 5420 5419 5419 5419 5420 5422 5425 5429 5432 5436 5439 5443 5447 5450 5453 5456 5460 5463 5465 5466 5468 5468
5373 5379 5384 5388 5393 5398 5403 5407 5410 5412 5416 5418 5420 5420 5419 5417 5416 5415 5416 5417 5419 5421 5423 5426 5430 5434 5438 5441 5444 5448 5451 5455 5458 5460 5461 5463 5464 5465
5366 5372 5377 5382 5387 5392 5396 5400 5403 5407 5411 5414 5415 5415 5414 5412 5411 5412 5413 5415 5418 5420 5422 5426 5429 5433 5436 5439 5442 5446 5450 5453 5455 5457 5459 5460 5461 5462
Wind_Speed
63 63 64 65 66 66 65 65 67 67 65 63 59 57 61 63 63 63 65 65 65 64 66 67 59 59 60 61 62 53 53 55 55 55 53 53 55 54
66 67 67 66 66 66 66 66 66 65 62 60 62 61 64 65 66 66 65 65 66 66 65 62 60 60 63 65 60 50 51 54 52 50 52 54 54 53
65 65 66 67 67 67 64 62 61 63 65 62 69 69 70 71 69 69 68 66 64 64 61 64 64 65 64 57 52 48 52 52 52 50 52 52 49 46
67 68 68 67 63 62 62 62 66 69 72 74 75 74 75 76 76 74 70 67 66 64 62 64 61 61 57 56 49 48 48 48 48 45 47 42 40 39
68 66 65 65 65 64 65 68 71 75 79 84 85 83 79 80 78 71 69 67 67 66 60 61 63 60 50 43 46 45 45 41 45 42 40 37 35 32
64 66 68 70 69 73 78 82 85 90 94 95 90 90 84 78 71 67 69 65 62 63 56 51 45 45 44 41 42 38 42 41 38 35 34 32 29 28
67 70 73 76 80 82 89 93 97 100 102 90 79 77 77 72 75 68 60 52 44 41 42 41 39 37 41 42 39 40 35 32 33 31 30 26 27 28
74 78 83 86 90 95 99 104 105 98 84 77 72 73 66 63 50 45 48 51 49 47 45 35 34 36 39 39 39 35 31 30 29 28 26 27 26 25
86 89 92 94 97 101 103 94 83 65 58 59 62 58 52 45 44 37 46 44 39 44 34 33 34 36 39 35 35 32 28 27 27 25 26 26 24 24
94 97 99 99 97 91 79 74 60 52 48 45 37 34 37 36 35 33 35 34 35 33 30 34 33 34 32 27 26 26 26 26 24 25 24 23 22 22
99 87 74 69 61 60 59 55 47 41 39 36 27 29 38 26 27 27 32 31 30 28 28 29 25 24 24 24 27 29 26 24 24 24 22 20 20 20
73 58 56 56 58 57 52 43 38 33 27 22 28 30 26 28 39 32 33 32 29 27 27 23 23 23 24 25 28 30 26 25 25 21 18 17 18 18
53 52 52 55 56 52 36 28 16 15 19 15 20 25 35 30 25 28 28 27 25 24 24 24 23 22 25 27 29 28 26 25 22 19 15 17 17 16
54 54 54 53 52 31 27 22 18 13 8 10 13 16 18 21 23 23 23 24 24 26 24 23 21 21 23 21 23 25 25 24 21 17 14 16 16 14
61 57 52 48 49 24 28 25 20 13 13 14 16 18 19 18 17 19 23 25 27 28 27 24 25 23 24 24 25 26 26 23 20 16 15 16 16 13
66 62 50 42 41 19 20 30 20 13 16 17 15 12 12 15 17 22 28 31 29 27 26 27 29 25 24 25 27 26 23 21 19 16 16 17 14 13
68 59 43 35 27 20 18 20 16 15 15 14 12 11 10 14 21 25 25 21 20 20 22 23 25 23 22 22 23 22 22 20 18 17 17 16 14 13
53 43 35 28 20 17 15 16 19 18 17 16 13 10 12 19 21 20 17 16 17 16 17 21 22 21 21 21 23 23 20 19 18 17 17 14 13 12
35 33 33 29 26 21 18 17 19 17 19 18 16 15 14 19 19 16 15 15 14 15 18 22 22 21 22 22 21 20 19 19 17 17 15 14 13 13
25 29 25 28 26 25 23 18 20 18 22 17 12 12 15 19 18 15 13 13 13 16 18 20 20 19 20 20 20 20 20 18 18 15 14 12 11 12
24 22 29 29 23 23 23 20 21 20 23 18 12 13 15 20 17 13 12 11 12 16 19 19 19 19 19 20 19 19 19 19 16 14 13 11 10 11
29 30 29 29 25 21 22 22 22 20 23 18 16 13 18 20 15 12 11 12 13 17 18 18 19 20 20 19 19 19 19 17 15 13 12 12 11 12
32 23 29 32 28 23 21 23 22 23 24 19 14 12 18 18 12 10 11 14 14 16 17 17 18 19 19 19 20 21 18 16 14 12 12 12 13 13
Wind_Direction
291 291 290 289 288 287 288 288 288 288 287 288 288 289 290 290 290 290 289 288 288 288 288 289 289 286 282 281 286 288 286 285 284 284 281 280 280 276
291 290 289 289 288 288 288 288 289 289 288 291 292 292 292 292 290 288 288 287 286 285 285 284 285 284 281 282 287 288 285 281 281 282 281 275 272 272
288 287 287 287 287 287 288 288 288 290 292 292 292 290 288 288 288 287 287 286 283 283 277 277 280 282 281 284 285 284 283 280 278 279 276 275 276 276
288 287 287 287 288 289 289 288 287 288 289 293 293 289 287 286 287 286 285 285 281 278 276 275 275 277 276 279 281 286 282 281 276 274 276 274 274 275
288 287 288 288 287 287 290 291 291 291 291 292 290 287 285 285 286 283 280 277 275 274 276 278 279 277 277 277 289 278 273 269 269 272 273 278 276 275
291 292 292 291 289 289 289 292 294 295 294 294 292 287 285 281 278 271 273 270 277 279 278 274 272 276 281 282 275 257 270 276 274 272 273 273 267 266
291 291 291 290 290 291 293 295 296 297 299 294 286 278 276 266 266 276 272 275 270 272 270 272 285 283 272 269 266 267 268 270 268 269 271 261 259 266
291 294 298 298 297 298 300 302 301 298 291 283 276 270 267 282 278 278 261 264 275 275 270 277 276 271 267 269 271 268 267 266 265 266 263 253 268 267
300 300 301 302 303 303 303 304 299 289 284 281 279 277 272 270 275 261 264 263 266 267 275 273 271 271 270 271 269 265 260 259 259 260 261 257 266 274
303 304 304 304 305 305 305 300 292 289 287 285 276 262 258 259 264 268 264 270 269 276 267 265 266 269 267 264 263 256 253 253 255 257 260 262 266 272
307 309 307 308 306 303 302 299 293 286 277 275 256 251 268 254 254 262 272 269 269 262 262 265 262 262 259 257 252 250 250 245 251 258 257 260 271 267
306 304 305 306 308 307 307 297 285 280 269 274 263 261 256 268 263 265 262 261 257 264 263 256 253 256 256 252 250 248 241 243 249 248 256 264 262 255
307 308 307 310 313 314 306 299 273 265 269 274 262 261 250 254 248 254 252 256 257 254 253 255 251 255 254 251 244 233 231 240 239 245 253 258 252 242
306 306 308 310 312 302 278 286 279 254 284 274 252 250 248 252 254 259 260 256 257 257 256 252 248 249 242 245 225 219 232 237 233 241 253 250 240 236
301 301 301 305 308 290 267 270 265 264 266 253 256 258 258 256 256 259 263 266 269 269 268 248 238 237 239 226 223 222 229 231 232 238 247 241 230 241
293 292 289 293 296 266 279 250 262 253 262 255 252 238 250 264 272 277 278 278 276 269 260 241 234 227 228 217 220 221 226 228 231 235 238 231 226 239
285 278 271 275 268 244 262 244 242 253 256 235 230 253 275 288 286 284 280 273 270 262 242 224 220 218 213 212 217 222 226 226 225 229 230 221 230 240
275 261 252 250 238 233 238 240 242 246 239 224 239 256 284 294 288 282 271 265 272 246 227 213 208 205 205 206 212 220 221 222 220 222 220 226 235 241
267 243 240 240 245 243 236 244 245 239 226 226 244 262 287 306 294 278 275 266 266 235 218 209 205 203 205 209 212 213 215 215 213 214 219 230 239 244
240 234 238 233 232 235 230 240 241 239 221 229 248 258 293 304 292 275 270 271 243 222 209 208 208 206 205 205 205 208 210 208 206 211 224 231 241 249
213 210 216 216 216 222 232 240 237 238 217 231 245 275 295 297 286 270 263 255 226 212 201 198 204 205 201 200 204 207 205 200 201 210 216 232 249 251
194 202 209 211 214 215 228 237 229 232 216 232 244 273 295 292 278 257 250 228 214 201 195 193 198 198 198 203 208 205 196 196 205 214 228 240 249 249
195 202 213 216 214 215 223 226 222 218 218 235 246 285 296 289 259 242 231 211 201 194 189 192 196 201 207 207 205 195 194 202 214 227 236 243 249 247